This demonstration page uses our WeatherBlox Daily Observations layout. Learn more.

Left ArrowRight Arrow

40.92501, -98.34201

Hourly Observations for August 2, 2022

Temp ( °F °C ) Dew Point ( °F °C ) Humidity (%) Winds ( mph kmh ) Pressure ( in mb ) Visibility ( mi km ) Precip ( " mm )
12:53 am 00:53 Clear 79 26.1 73 22.8 82 82 SSE 9 15 29.82 1010 10 16 0.00 0.00
1:53 am 01:53 Clear 78 25.6 72 22.2 82 82 S 10 17 29.81 1010 10 16 0.00 0.00
2:53 am 02:53 Clear 77 25 71 21.7 82 82 S 8 13 29.81 1009 10 16 0.00 0.00
3:53 am 03:53 Clear 75 23.9 70 21.1 84 84 Calm 29.81 1009 10 16 0.00 0.00
4:53 am 04:53 Clear 72 22.2 69 20.6 91 91 SSE 3 6 29.80 1009 10 16 0.00 0.00
5:53 am 05:53 Clear 73 22.8 69 20.6 87 87 S 7 11 29.79 1009 10 16 0.00 0.00
6:53 am 06:53 Sunny 73 22.8 67 19.4 81 81 SSW 9 15 29.79 1009 10 16 0.00 0.00
7:53 am 07:53 Sunny 77 25 67 19.4 71 71 SW 12 19 29.79 1009 10 16 0.00 0.00
8:53 am 08:53 Sunny 81 27.2 67 19.4 62 62 SW 8 13 29.79 1009 10 16 0.00 0.00
9:53 am 09:53 Mostly Sunny 85 29.4 68 20 57 57 SSW 7 11 29.78 1008 10 16 0.00 0.00
10:53 am 10:53 Sunny 89 31.7 70 21.1 53 53 SSW 9 15 29.77 1008 10 16 0.00 0.00
11:53 am 11:53 Sunny 91 32.8 72 22.2 54 54 S 10 17 29.76 1008 10 16 0.00 0.00
12:53 pm 12:53 Sunny 93 33.9 72 22.2 50 50 S 13 20 29.74 1007 10 16 0.00 0.00
1:53 pm 13:53 Sunny 95 35 73 22.8 49 49 S 13 20 29.73 1007 10 16 0.00 0.00
2:53 pm 14:53 Sunny 96 35.6 71 21.7 44 44 S 13 20 29.72 1006 10 16 0.00 0.00
3:53 pm 15:53 Sunny 97 36.1 72 22.2 45 45 S 17 28 29.71 1006 10 16 0.00 0.00
4:53 pm 16:53 Sunny 96 35.6 71 21.7 44 44 S 17 28 29.70 1006 10 16 0.00 0.00
5:53 pm 17:53 Sunny 95 35 71 21.7 46 46 S 16 26 29.69 1006 10 16 0.00 0.00
6:53 pm 18:53 Sunny 93 33.9 73 22.8 52 52 S 10 17 29.67 1005 10 16 0.00 0.00
7:53 pm 19:53 Sunny 87 30.6 74 23.3 65 65 SSE 7 11 29.67 1005 10 16 0.00 0.00
8:53 pm 20:53 Clear 84 28.9 75 23.9 74 74 SSE 8 13 29.66 1004 10 16 0.00 0.00
9:53 pm 21:53 Clear 86 30 73 22.8 65 65 S 10 17 29.65 1004 10 16 0.00 0.00
10:53 pm 22:53 Mostly Clear 86 30 70 21.1 59 59 S 13 20 29.65 1004 10 16 0.00 0.00
11:53 pm 23:53 Clear 84 28.9 68 20 59 59 S 10 17 29.65 1004 10 16 0.00 0.00

Powered by AerisWeather